Voltar ao catálogo

STARLINK-1094

AtivoComunicaçõesVLEO
NORAD 44941·PAYLOAD·🇺🇸 United States

Lançado Jan 7, 2020 de Cape Canaveral Space Force Station

Loading…

Próximas Passagens (próximas 24 horas)

TLE

AtualizadoSource: CelesTrak SupGP

Época: Sep 15, 2026, 01:38 UTC

1 44941C 20001AD  26258.06854167  .00093320  00000+0  87447-3 0  2582
2 44941  53.1452 130.5878 0003310  68.5520  60.4088 15.66506038    16

Acompanhe STARLINK-1094 em tempo real com AllMySat

Download on the App Store